Terminal Aerodrome Forecast
Issued by NWS

Home | Current Version | Previous Version | Text Only | Print | Product List | Glossary On
Versions: 1 2 3 4 5 6 7 8 9 10 11 12 13 14
000
FTUS45 KRIW 232325
TAFCOD
TAF
KCOD 232325Z 2400/2424 26020G30KT P6SM SCT250
     FM241000 36014G20KT P6SM VCSH SCT040 BKN100
     FM241700 32008KT P6SM SCT070
      AMD LTD TO CLD VIS AND WIND=

USA.gov is the U.S. government's official web portal to all federal, state and local government web resources and services.